This is the latest recevied weather packets stored in our database for station/object W0AVQ. If no packets are shown the sender has not sent any weather packets the latest 10 day(s).
| Time | Temp. | Humidity | Pressure | Rain* | Wind** | Luminosity | Snow |
|---|---|---|---|---|---|---|---|
| 1777902653 | 20° C | 69% | 1012.8 hPa | 0 mm | - | 67 W/m² | - |
| 1777902350 | 20° C | 69% | 1012.6 hPa | 0 mm | - | 68 W/m² | - |
| 1777902047 | 20° C | 71% | 1012.7 hPa | 0 mm | - | 69 W/m² | - |
| 1777901746 | 19.44° C | 71% | 1012.9 hPa | 0 mm | - | 67 W/m² | - |
| 1777901443 | 19.44° C | 71% | 1013 hPa | 0 mm | - | 66 W/m² | - |
| 1777901140 | 19.44° C | 72% | 1012.7 hPa | 0 mm | - | 62 W/m² | - |
| 1777900838 | 19.44° C | 72% | 1013 hPa | 0 mm | - | 58 W/m² | - |
| 1777900535 | 18.89° C | 73% | 1012.8 hPa | 0 mm | - | 58 W/m² | - |
| 1777900232 | 18.89° C | 74% | 1013.1 hPa | 0 mm | - | 59 W/m² | - |
| 1777899928 | 18.89° C | 75% | 1013 hPa | 0 mm | - | 57 W/m² | - |
| 1777899626 | 18.89° C | 74% | 1012.9 hPa | 0 mm | - | 54 W/m² | - |
| 1777899322 | 18.33° C | 75% | 1012.9 hPa | 0 mm | - | 54 W/m² | - |
| 1777899020 | 18.89° C | 75% | 1013 hPa | 0 mm | - | 54 W/m² | - |
| 1777898717 | 18.33° C | 75% | 1012.9 hPa | 0 mm | - | 52 W/m² | - |
| 1777898415 | 17.78° C | 76% | 1012.7 hPa | 0 mm | - | 51 W/m² | - |
| 1777898112 | 17.78° C | 76% | 1012.6 hPa | 0 mm | - | 47 W/m² | - |
| 1777897809 | 17.78° C | 76% | 1012.6 hPa | 0 mm | - | 43 W/m² | - |
| 1777897504 | 17.22° C | 77% | 1012.8 hPa | 0 mm | - | 42 W/m² | - |
| 1777897200 | 16.67° C | 78% | 1012.9 hPa | 0 mm | - | 42 W/m² | - |
| 1777896896 | 16.67° C | 79% | 1012.9 hPa | 0 mm | - | 42 W/m² | - |
| 1777896594 | 16.11° C | 80% | 1012.6 hPa | 0 mm | - | 43 W/m² | - |
| 1777896290 | 15.56° C | 81% | 1012.6 hPa | 0 mm | - | 41 W/m² | - |
| 1777895989 | 15.56° C | 82% | 1012.6 hPa | 0 mm | - | 39 W/m² | - |
| 1777895687 | 15° C | 83% | 1012.4 hPa | 0 mm | - | 36 W/m² | - |
| 1777895383 | 15° C | 83% | 1012.5 hPa | 0 mm | - | 29 W/m² | - |
* Rain latest hour (hover to see other rain measurements)
** Current wind speed in m/s (hover to see current wind gust speed)